Weather in Novonikolaevsky

Russia / Volgograd Oblast     50°58′26″N   42°22′00″E
temp.,
°C
wind,
m/s
gust,
m/s
humid.,
%
clouds,
%
prec.,
mm/h
press.,
hPa
HPBL,
m
18 may, tue
tue1800:00+18ese6155264 0.0 1010268
03:00+16ese512505 0.0 1009150
06:00+16ese5145818 0.0 1009228
09:00+23ese615475 0.0 1008664
12:00+27se811385 0.0 10071133
15:00+28se715400 0.0 10062406
18:00+24ssw6115572 0.0 1006392
21:00+17wnw1191100 0.0 100812
19 may, wed
wed1900:00+15ssw349432 0.0 100986
03:00+14sse34953 0.0 101085
06:00+15sw358753 0.1 1010196
09:00+20n115899 0.1 1009661
12:00+23ese3553100 0.0 10081375
15:00+24s5748100 0.0 10081569
18:00+22s71261100 0.1 1008769
21:00+13sw4989100 0.4 1009328
20 may, thu
thu2000:00+13s4986100 0.1 1010317
03:00+11sse49969 0.1 1010273
06:00+11s5993100 0.0 1010468
09:00+13sse6985100 0.1 1011813
12:00+17s687369 0.9 10111024
15:00+17ssw687522 2.6 1011927
18:00+17sw587813 1.1 1012730
21:00+13sw35922 1.1 101389
21 may, fri
fri2100:00+11sw379340 0.0 1014128
03:00+10sw36955 0.0 1014114
06:00+12wsw369066 0.0 1015202
09:00+17wsw4670100 0.0 1016834
12:00+20wsw465532 0.0 10161372
15:00+22wsw355022 0.0 10151894
18:00+21n1162100 0.0 101513
21:00+17ene3370100 0.0 101726
22 may, sat
sat2200:00+16ne477499 0.1 1016116
03:00+16ene477794 0.1 1016136
06:00+16e5137764 0.0 1016325
09:00+22ese710585 0.0 1015627
12:00+26se812445 0.0 10141589
15:00+28se61045100 0.0 10132051
18:00+25ese3761100 0.0 1012167
21:00+21ese4126399 0.0 1012212